Weather History for Adelaide, SA

Change the Weather History Date:

Monday, May 13, 2013

  Actual Average Record
Temperature  
Mean Temperature 55 °F -  
Max Temperature 60 °F 63 °F 78 °F (2001)
Min Temperature 50 °F 47 °F 41 °F (1997)
Degree Days  
Heating Degree Days 10    
Growing Degree Days 5 (Base 50)    
Moisture  
Dew Point 46 °F    
Average Humidity 70    
Maximum Humidity 94    
Minimum Humidity 44    
Precipitation  
Precipitation 0.39 in 0.07 in - ()
Sea Level Pressure  
Sea Level Pressure 30.06 in    
Wind  
Wind Speed 15 mph ()    
Max Wind Speed 25 mph    
Max Gust Speed 34 mph    
Visibility 6.7 miles    
Events Rain    
Averages and records for this station are not official NWS values.
T = Trace of Precipitation, MM = Missing Value Source: Averaged Metar Reports

Daily Weather History Graph

Daily Weather History Graph

Search for Another Location

Airport:

Trip Planner

Search our weather history database for the weather conditions in past years. The results will help you decide how hot, cold, wet, or windy it might be!

Date:

Astronomy

May. 13, 2013 Rise Set
Actual Time 7:01 AM ACST 5:22 PM ACST
Civil Twilight 6:34 AM ACST 5:49 PM ACST
Nautical Twilight 6:04 AM ACST 6:20 PM ACST
Astronomical Twilight 5:34 AM ACST 6:50 PM ACST
Moon 9:31 AM ACST (5/13) 7:52 PM ACST (5/13)
Length of Visible Light 11h 14m
Length of Day
10h 21m
Waxing Crescent, 9% of the Moon is Illuminated
May 13
Waxing Crescent
May 18
First Quarter
May 25
Full
Jun 1
Last Quarter
Jun 9
New

Hourly Weather History & Observations

Time (ACST) Temp. Dew Point Humidity Pressure Visibility Wind Dir Wind Speed Gust Speed Precip Events Conditions
12:00 AM 54 °F 46 °F 67% 30.05 in 12 mi SW 17.3 mph - -   Mostly Cloudy
12:00 AM 53.6 °F 46.4 °F 77% 30.04 in 5.6 mi SW 17.3 mph - N/A   Mostly Cloudy
12:30 AM 56 °F 40 °F 44% 30.05 in - WSW 17.3 mph - -  
12:30 AM 55.4 °F 41.0 °F 58% 30.04 in 6.2 mi WSW 17.3 mph - N/A   Mostly Cloudy
1:00 AM 55.4 °F 39.2 °F 54% 30.04 in 6.2 mi WSW 17.3 mph - N/A   Mostly Cloudy
1:30 AM 55.4 °F 42.8 °F 63% 30.04 in 6.2 mi West 12.7 mph - N/A Rain Light Rain Showers
1:36 AM 53.6 °F 44.6 °F 72% 30.04 in 3.7 mi WSW 15.0 mph - N/A Rain Light Rain Showers
2:00 AM 51.8 °F 46.4 °F 82% 30.04 in 6.2 mi SW 18.4 mph - N/A   Mostly Cloudy
2:30 AM 51.8 °F 44.6 °F 76% 30.04 in 6.2 mi SW 10.4 mph - N/A   Scattered Clouds
2:51 AM 51.8 °F 46.4 °F 82% 30.04 in 5.6 mi West 18.4 mph 29.9 mph N/A Rain Light Rain Showers
3:00 AM 51 °F 47 °F 81% 30.05 in 9 mi West 21.9 mph - - Rain Light Rain Showers
3:00 AM 50.0 °F 46.4 °F 87% 30.04 in 6.2 mi WSW 21.9 mph - N/A   Mostly Cloudy
3:30 AM 52 °F 45 °F 69% 30.04 in - WSW 17.3 mph - -  
3:30 AM 51.8 °F 44.6 °F 76% 30.04 in 6.2 mi WSW 17.3 mph - N/A   Scattered Clouds
3:56 AM 51.8 °F 46.4 °F 82% 30.04 in 3.7 mi West 19.6 mph - N/A Rain Light Rain Showers
4:00 AM 50.0 °F 44.6 °F 82% 30.04 in 4.3 mi West 20.7 mph - N/A Rain Light Rain Showers
4:30 AM 53.6 °F 42.8 °F 67% 30.04 in 6.2 mi SW 19.6 mph 31.1 mph N/A   Mostly Cloudy
5:00 AM 53.6 °F 44.6 °F 72% 30.04 in 6.2 mi SW 21.9 mph - N/A   Scattered Clouds
5:30 AM 53.6 °F 42.8 °F 67% 30.04 in 6.2 mi SSW 17.3 mph - N/A   Scattered Clouds
6:00 AM 51 °F 43 °F 67% 30.06 in 16 mi South 10.4 mph - -   Partly Cloudy
6:00 AM 51.8 °F 42.8 °F 71% 30.06 in 6.2 mi South 10.4 mph - N/A   Partly Cloudy
6:30 AM 52 °F 43 °F 64% 30.06 in - South 6.9 mph - -  
6:30 AM 51.8 °F 42.8 °F 71% 30.06 in 6.2 mi South 6.9 mph - N/A   Scattered Clouds
7:00 AM 55.4 °F 41.0 °F 58% 30.06 in 6.2 mi SW 15.0 mph - N/A   Scattered Clouds
7:30 AM 55.4 °F 42.8 °F 63% 30.06 in 6.2 mi WSW 18.4 mph - N/A   Mostly Cloudy
7:44 AM 55.4 °F 44.6 °F 67% 30.06 in 6.2 mi SW 18.4 mph 29.9 mph N/A   Mostly Cloudy
8:00 AM 55.4 °F 42.8 °F 63% 30.06 in 6.2 mi SSE 8.1 mph - N/A   Mostly Cloudy
8:23 AM 51.8 °F 46.4 °F 82% 30.09 in 3.7 mi SSE 9.2 mph - N/A Rain Rain Showers
8:30 AM 51.8 °F 46.4 °F 82% 30.09 in 4.3 mi SSE 11.5 mph - N/A Rain Light Rain Showers
8:42 AM 51.8 °F 46.4 °F 82% 30.09 in 6.2 mi SSE 9.2 mph - N/A   Scattered Clouds
9:00 AM 53 °F 48 °F 76% 30.12 in 19 mi South 8.1 mph - - Rain Light Rain Showers
9:00 AM 53.6 °F 48.2 °F 82% 30.09 in 6.2 mi South 8.1 mph - N/A Rain Light Rain Showers
9:30 AM 54 °F 47 °F 72% 30.12 in - South 6.9 mph - -  
9:30 AM 53.6 °F 48.2 °F 82% 30.12 in 6.2 mi South 6.9 mph - N/A   Mostly Cloudy
10:00 AM 55.4 °F 46.4 °F 72% 30.12 in 6.2 mi South 9.2 mph - N/A Rain Light Rain Showers
10:30 AM 57.2 °F 46.4 °F 67% 30.12 in 6.2 mi South 8.1 mph - N/A   Mostly Cloudy
11:00 AM 59.0 °F 44.6 °F 59% 30.09 in 6.2 mi SW 13.8 mph - N/A   Scattered Clouds
11:30 AM 59.0 °F 44.6 °F 59% 30.09 in 6.2 mi SW 15.0 mph - N/A   Scattered Clouds
12:00 PM 59 °F 44 °F 46% 30.11 in 19 mi SW 16.1 mph - -   Partly Cloudy
12:00 PM 59.0 °F 44.6 °F 59% 30.09 in 6.2 mi SW 16.1 mph - N/A   Scattered Clouds
12:30 PM 60.8 °F 44.6 °F 55% 30.06 in 6.2 mi SW 15.0 mph - N/A   Scattered Clouds
1:00 PM 59.0 °F 42.8 °F 55% 30.06 in 6.2 mi SW 15.0 mph - N/A   Scattered Clouds
1:30 PM 57.2 °F 46.4 °F 67% 30.06 in 6.2 mi West 13.8 mph - N/A   Mostly Cloudy
2:00 PM 59.0 °F 42.8 °F 55% 30.06 in 6.2 mi WSW 16.1 mph - N/A   Scattered Clouds
2:30 PM 59.0 °F 42.8 °F 55% 30.06 in 6.2 mi WSW 16.1 mph - N/A   Mostly Cloudy
3:00 PM 58 °F 45 °F 51% 30.08 in 19 mi West 16.1 mph - -   Mostly Cloudy
3:00 PM 59.0 °F 44.6 °F 59% 30.06 in 6.2 mi WSW 16.1 mph - N/A   Mostly Cloudy
3:30 PM 58 °F 44 °F 49% 30.08 in - WSW 15.0 mph - -  
3:30 PM 59.0 °F 44.6 °F 59% 30.06 in 6.2 mi WSW 15.0 mph - N/A   Mostly Cloudy
4:00 PM 59.0 °F 42.8 °F 55% 30.06 in 6.2 mi WSW 12.7 mph - N/A   Mostly Cloudy
4:21 PM 55.4 °F 44.6 °F 67% 30.06 in 3.7 mi WSW 20.7 mph - N/A Rain Light Rain Showers
4:29 PM 55.4 °F 46.4 °F 72% 30.06 in 4.3 mi SW 21.9 mph 34.5 mph N/A Rain Light Rain Showers
4:55 PM 53.6 °F 48.2 °F 82% 30.06 in 3.1 mi West 20.7 mph 32.2 mph N/A Rain Rain Showers
5:00 PM 53.6 °F 48.2 °F 82% 30.06 in 3.7 mi West 20.7 mph 32.2 mph N/A Rain Light Rain Showers
5:16 PM 55.4 °F 50.0 °F 82% 30.06 in 5.0 mi West 12.7 mph - N/A   Mostly Cloudy
5:30 PM 55.4 °F 46.4 °F 72% 30.06 in 6.2 mi West 11.5 mph - N/A   Mostly Cloudy
6:00 PM 56 °F 46 °F 59% 30.07 in 19 mi WSW 13.8 mph - -   Mostly Cloudy
6:00 PM 57.2 °F 46.4 °F 67% 30.06 in 6.2 mi WSW 13.8 mph - N/A   Mostly Cloudy
6:15 PM 55.4 °F 46.4 °F 72% 30.06 in 6.2 mi SW 17.3 mph 28.8 mph N/A   Mostly Cloudy
6:30 PM 56 °F 47 °F 63% 30.07 in - WSW 21.9 mph - -  
6:30 PM 55.4 °F 46.4 °F 72% 30.06 in 6.2 mi WSW 21.9 mph - N/A   Scattered Clouds
7:00 PM 55.4 °F 46.4 °F 72% 30.06 in 6.2 mi West 18.4 mph - N/A   Mostly Cloudy
7:25 PM 55.4 °F 46.4 °F 72% 30.06 in 6.2 mi SW 25.3 mph - N/A Rain Light Rain Showers
7:30 PM 53.6 °F 48.2 °F 82% 30.06 in 5.6 mi WSW 21.9 mph 34.5 mph N/A Rain Light Rain Showers
8:00 PM 57.2 °F 44.6 °F 63% 30.06 in 6.2 mi WSW 19.6 mph - N/A   Scattered Clouds
8:12 PM 55.4 °F 48.2 °F 77% 30.06 in 3.7 mi SW 20.7 mph - N/A Rain Light Rain Showers
8:30 PM 55.4 °F 48.2 °F 77% 30.06 in 4.3 mi WSW 13.8 mph - N/A Rain Light Rain Showers
8:57 PM 55.4 °F 51.8 °F 88% 30.06 in 3.7 mi WSW 19.6 mph - N/A Rain Light Rain Showers
9:00 PM 55 °F 51 °F 80% 30.08 in 12 mi SW 19.6 mph - - Rain Light Rain Showers
9:00 PM 55.4 °F 50.0 °F 82% 30.06 in 3.7 mi SW 19.6 mph - N/A Rain Light Rain Showers
9:19 PM 55.4 °F 50.0 °F 82% 30.06 in 5.0 mi West 19.6 mph - N/A   Mostly Cloudy
9:30 PM 56 °F 48 °F 66% 30.07 in - WSW 16.1 mph - -  
9:30 PM 55.4 °F 48.2 °F 77% 30.06 in 6.2 mi WSW 16.1 mph - N/A   Mostly Cloudy
10:00 PM 55.4 °F 50.0 °F 82% 30.04 in 5.0 mi West 17.3 mph - N/A Rain Light Rain Showers
10:30 PM 57.2 °F 48.2 °F 72% 30.04 in 5.0 mi West 17.3 mph - N/A Rain Light Rain Showers
10:35 PM 55.4 °F 50.0 °F 82% 30.06 in 3.1 mi SW 19.6 mph - N/A Rain Light Rain Showers
10:55 PM 55.4 °F 50.0 °F 82% 30.04 in 6.2 mi WSW 17.3 mph - N/A   Mostly Cloudy
11:00 PM 55.4 °F 50.0 °F 82% 30.04 in 5.6 mi West 16.1 mph - N/A Rain Light Rain Showers
11:30 PM 53.6 °F 51.8 °F 94% 30.04 in 6.2 mi West 17.3 mph - N/A   Mostly Cloudy